Flag for Germany Weather for the Past 2 Weeks in Frankenthal (Pfalz), Rhineland-Palatinate, Germany

Now
77 °F

Passing clouds.


Feels Like: 78 °F
Forecast: 47 / 74 °F
Wind: 6 mph from Northeast

Location: Mannheim City

Current Time: May 6, 2016 at 5:03:25 PM

Latest Report: May 6, 2016 at 4:20 PM


Visibility: N/A

Pressure: 29.92 "Hg

Humidity: 32%

Dew Point: 45 °F

Location of Frankenthal (Pfalz)Location

Historic Weather in Frankenthal (Pfalz) — Graph

°F

Frankenthal (Pfalz) Temperature Yesterday

Maximum temperature yesterday: 70 °F (at 5:50 PM)
Minimum temperature yesterday: 52 °F (at 7:50 AM)
Average temperature yesterday: 63 °F

High & Low Weather Summary for the Past Weeks

 TemperatureHumidityPressure
High77 °F (May 6, 3:50 PM)100% (Apr 23, 11:20 AM)30.39 "Hg (Apr 23, 11:20 AM)
Low36 °F (Apr 25, 6:50 AM)23% (Apr 21, 4:50 PM)29.59 "Hg (Apr 26, 5:50 AM)
Average53 °F57%30.02 "Hg
* Reported Apr 21 3:20 PM — May 6 3:50 PM, Frankenthal (Pfalz), Weather by CustomWeather, © 2016

Note: Actual official high and low records may vary slightly from our data, if they occured in-between our weather recording intervals... More about our weather records

Advertising

Frankenthal (Pfalz) Weather History for the Previous 24 Hours

Scroll right to see more
 ConditionsComfort  
Time TempWeatherWind HumidityBarometerVisibility
3:50 PM
Fri, May 6
77 °FPassing clouds.5 mph30%29.95 "HgN/A
3:20 PM75 °FSunny.3 mph25%29.95 "Hg10 mi
2:50 PM75 °FSunny.3 mph27%29.95 "Hg10 mi
2:20 PM73 °FSunny.3 mph29%29.98 "Hg10 mi
1:50 PM72 °FPassing clouds.6 mph36%29.98 "HgN/A
1:20 PM72 °FPassing clouds.6 mph36%29.98 "HgN/A
12:50 PM70 °FPassing clouds.5 mph40%30.01 "HgN/A
12:20 PM68 °FSunny.5 mph43%30.01 "Hg10 mi
11:50 AM68 °FSunny.3 mph49%30.01 "Hg10 mi
11:20 AM66 °FSunny.3 mph49%30.04 "Hg10 mi
10:50 AM64 °FSunny.3 mph52%30.04 "Hg10 mi
10:20 AM63 °FSunny.3 mph56%30.04 "Hg10 mi
9:50 AM61 °FSunny.2 mph59%30.04 "Hg10 mi
9:20 AM59 °FSunny.3 mph63%30.04 "Hg10 mi
8:50 AM59 °FSunny.2 mph63%30.04 "Hg10 mi
8:20 AM57 °FSunny.1 mph63%30.04 "Hg10 mi
7:50 AM54 °FPassing clouds.5 mph77%30.04 "HgN/A
7:20 AM54 °FSunny.No wind77%30.04 "Hg10 mi
6:50 AM48 °FClear.No wind87%30.04 "Hg10 mi
6:20 AM46 °FClear.2 mph87%30.04 "Hg10 mi
5:50 AM46 °FClear.1 mph93%30.04 "Hg10 mi
7:20 PM
Thu, May 5
68 °FPassing clouds.12 mph40%30.09 "HgN/A
6:50 PM68 °FPassing clouds.9 mph40%30.09 "HgN/A
6:20 PM70 °FSunny.13 mph38%30.09 "Hg10 mi
5:50 PM70 °FPassing clouds.10 mph38%30.12 "HgN/A
5:20 PM68 °FPassing clouds.10 mph38%30.12 "HgN/A
Weather by CustomWeather, © 2016

See weather overviewHow to use our weather pages